TimeCST,TemperatureF,Dew PointF,Humidity,Sea Level PressureIn,VisibilityMPH,Wind Direction,Wind SpeedMPH,Gust SpeedMPH,PrecipitationIn,Events,Conditions,WindDirDegrees,DateUTC
12:03 AM,8.6,5.0,85,30.30,9.0,North,17.3,25.3,N/A,Snow,Light Snow,10,2014-02-05 06:03:00
12:08 AM,8.6,5.0,85,30.31,9.0,North,18.4,26.5,N/A,Snow,Light Snow,10,2014-02-05 06:08:00
12:13 AM,8.6,3.2,79,30.31,8.0,North,19.6,26.5,N/A,Snow,Light Snow,360,2014-02-05 06:13:00
12:18 AM,8.6,3.2,79,30.32,8.0,North,19.6,25.3,N/A,Snow,Light Snow,10,2014-02-05 06:18:00
12:23 AM,8.6,3.2,79,30.31,8.0,North,17.3,25.3,N/A,Snow,Light Snow,10,2014-02-05 06:23:00
12:28 AM,8.6,3.2,79,30.32,7.0,North,20.7,26.5,N/A,Snow,Light Snow,360,2014-02-05 06:28:00
12:30 AM,8.6,3.2,79,30.32,7.0,North,19.6,26.5,N/A,,Overcast,10,2014-02-05 06:30:00
12:34 AM,8.6,3.2,79,30.33,7.0,North,13.8,26.5,N/A,Snow,Light Snow,360,2014-02-05 06:34:00
12:45 AM,8.6,3.2,79,30.33,10.0,North,12.7,-,N/A,,Overcast,360,2014-02-05 06:45:00
12:46 AM,8.6,3.2,79,30.34,10.0,North,11.5,-,N/A,Snow,Light Snow,360,2014-02-05 06:46:00
12:58 AM,8.2,3.0,79,30.38,8.0,North,20.7,29.9,0.00,Snow,Light Snow,10,2014-02-05 06:58:00
12:59 AM,8.6,3.2,79,30.34,8.0,North,16.1,29.9,N/A,,Overcast,360,2014-02-05 06:59:00
1:04 AM,8.6,3.2,79,30.34,9.0,North,19.6,26.5,N/A,,Overcast,360,2014-02-05 07:04:00
1:45 AM,6.8,1.4,79,30.37,10.0,North,16.1,24.2,N/A,,Overcast,350,2014-02-05 07:45:00
1:58 AM,6.8,0.9,77,30.45,10.0,North,15.0,21.9,0.00,,Overcast,350,2014-02-05 07:58:00
2:10 AM,6.8,1.4,79,30.40,10.0,North,17.3,-,N/A,,Freezing Rain,350,2014-02-05 08:10:00
2:16 AM,6.8,-0.4,72,30.40,10.0,North,12.7,-,N/A,,Freezing Rain,350,2014-02-05 08:16:00
2:41 AM,6.8,-0.4,72,30.42,10.0,North,17.3,23.0,N/A,Snow,Light Snow,350,2014-02-05 08:41:00
2:44 AM,6.8,-0.4,72,30.42,10.0,NNW,12.7,20.7,N/A,,Overcast,340,2014-02-05 08:44:00
2:55 AM,5.0,-0.4,78,30.43,10.0,NNW,10.4,-,N/A,,Overcast,340,2014-02-05 08:55:00
2:58 AM,5.9,-0.4,75,30.49,10.0,North,10.4,-,0.00,,Overcast,350,2014-02-05 08:58:00
3:23 AM,5.0,-2.2,72,30.43,10.0,North,19.6,26.5,N/A,,Overcast,360,2014-02-05 09:23:00
3:38 AM,5.0,-2.2,72,30.44,10.0,North,11.5,-,N/A,,Overcast,360,2014-02-05 09:38:00
3:41 AM,5.0,-2.2,72,30.45,10.0,North,11.5,-,N/A,Snow,Light Snow,350,2014-02-05 09:41:00
3:52 AM,5.0,-2.2,72,30.45,10.0,North,12.7,-,N/A,,Overcast,360,2014-02-05 09:52:00
3:58 AM,5.0,-1.5,75,30.51,9.0,North,18.4,25.3,0.00,,Overcast,10,2014-02-05 09:58:00
4:08 AM,5.0,-2.2,72,30.46,9.0,North,15.0,27.6,N/A,,Overcast,10,2014-02-05 10:08:00
4:13 AM,5.0,-2.2,72,30.46,10.0,North,16.1,26.5,N/A,,Overcast,360,2014-02-05 10:13:00
4:28 AM,5.0,-2.2,72,30.47,10.0,North,10.4,20.7,N/A,Snow,Light Snow,360,2014-02-05 10:28:00
4:43 AM,5.0,-2.2,72,30.48,8.0,North,12.7,-,N/A,Snow,Light Snow,360,2014-02-05 10:43:00
4:53 AM,5.0,-2.2,72,30.49,8.0,North,13.8,20.7,N/A,Snow,Light Snow,360,2014-02-05 10:53:00
4:58 AM,4.3,-2.4,74,30.55,8.0,North,13.8,20.7,0.00,Snow,Light Snow,360,2014-02-05 10:58:00
5:01 AM,5.0,-2.2,72,30.50,10.0,North,12.7,20.7,N/A,,Overcast,360,2014-02-05 11:01:00
5:11 AM,3.2,-4.0,72,30.50,10.0,North,18.4,24.2,N/A,,Overcast,350,2014-02-05 11:11:00
5:51 AM,3.2,-4.0,72,30.52,10.0,North,13.8,20.7,N/A,,Scattered Clouds,350,2014-02-05 11:51:00
5:58 AM,2.8,-4.7,71,30.58,10.0,North,13.8,20.7,0.00,,Scattered Clouds,350,2014-02-05 11:58:00
6:23 AM,3.2,-5.8,66,30.54,10.0,North,9.2,-,N/A,,Mostly Cloudy,350,2014-02-05 12:23:00
6:33 AM,3.2,-5.8,66,30.54,10.0,North,11.5,17.3,N/A,,Scattered Clouds,350,2014-02-05 12:33:00
6:58 AM,2.3,-5.1,71,30.61,10.0,North,10.4,-,N/A,,Clear,350,2014-02-05 12:58:00
7:58 AM,1.9,-5.6,71,30.63,10.0,North,5.8,-,N/A,,Clear,350,2014-02-05 13:58:00
8:13 AM,1.4,-5.8,72,30.58,10.0,NNW,4.6,-,N/A,,Mostly Cloudy,330,2014-02-05 14:13:00
8:28 AM,3.2,-5.8,66,30.59,10.0,North,12.7,-,N/A,,Scattered Clouds,350,2014-02-05 14:28:00
8:58 AM,3.7,-6.0,64,30.67,10.0,North,11.5,19.6,N/A,,Clear,360,2014-02-05 14:58:00
9:58 AM,4.8,-4.7,65,30.69,10.0,North,16.1,21.9,N/A,,Partly Cloudy,360,2014-02-05 15:58:00
10:58 AM,6.1,-4.9,61,30.72,10.0,NNW,13.8,-,N/A,,Partly Cloudy,330,2014-02-05 16:58:00
11:58 AM,7.5,-4.2,59,30.71,10.0,North,16.1,21.9,N/A,,Clear,360,2014-02-05 17:58:00
12:58 PM,8.6,-3.5,58,30.70,10.0,NNW,16.1,21.9,N/A,,Partly Cloudy,340,2014-02-05 18:58:00
1:58 PM,9.0,-3.1,58,30.68,10.0,North,15.0,23.0,N/A,,Scattered Clouds,350,2014-02-05 19:58:00
2:58 PM,9.3,-2.9,58,30.68,10.0,North,18.4,23.0,N/A,,Clear,350,2014-02-05 20:58:00
3:58 PM,9.9,-3.5,55,30.70,10.0,North,12.7,-,N/A,,Clear,360,2014-02-05 21:58:00
4:58 PM,9.3,-4.9,53,30.71,10.0,North,16.1,-,N/A,,Clear,360,2014-02-05 22:58:00
5:58 PM,7.7,-5.8,54,30.73,10.0,NNW,8.1,-,N/A,,Clear,340,2014-02-05 23:58:00
7:58 PM,5.7,-6.0,59,30.76,10.0,NNW,4.6,-,N/A,,Clear,330,2014-02-06 01:58:00
8:58 PM,6.1,-5.8,58,30.75,10.0,NNW,6.9,-,N/A,,Clear,330,2014-02-06 02:58:00
9:58 PM,4.8,-6.3,60,30.74,10.0,North,8.1,-,N/A,,Clear,350,2014-02-06 03:58:00
10:58 PM,4.8,-5.8,62,30.73,10.0,NNW,4.6,-,N/A,,Overcast,340,2014-02-06 04:58:00
11:58 PM,4.6,-6.5,60,30.73,10.0,North,6.9,-,N/A,,Overcast,350,2014-02-06 05:58:00